Flag for U.S.A. Weather past 2 weeks in Aspen, Colorado, U.S.A.

Now
31 °F

Mostly cloudy.


Feels Like: 25 °F
Forecast: 20 / 34 °F
Wind: 6 mph from Northeast

Location: Aspen-Pitkin County Airport

Current Time: Dec 17, 2014 at 4:56:03 PM

Latest Report: Dec 17, 2014 at 3:53 PM


Visibility: 7 mi

Pressure: 29.89 "Hg

Humidity: 85%

Dew point: 27 °F

Location of AspenLocation

Historic Weather in Aspen — Graph

°F

Aspen temperature yesterday

Maximum temperature yesterday: 30 °F (at 2:53 PM)
Minimum temperature yesterday: 7 °F (at 1:53 AM)
Average temperature yesterday: 21 °F

Past Weeks' High & Low Weather Summary

 TemperatureHumidityPressure
High50 °F (Dec 13, 12:53 PM)100% (Dec 4, 8:53 PM)30.46 "Hg (Dec 4, 8:53 PM)
Low5 °F (Dec 15, 9:53 PM)18% (Dec 9, 2:53 PM)29.62 "Hg (Dec 14, 2:53 AM)
Average30 °F66%30.13 "Hg
* Reported Dec 2 2:53 PM — Dec 17 2:53 PM, Aspen, Weather by CustomWeather, © 2014

Note: Actual official high and low records may vary slightly from our data, if they occured in-between our weather recording intervals... More about our weather records

Advertising

Aspen weather history for previous 24 hours

 ConditionsComfort  
Time TempWeatherWind HumidityBarometerVisibility
2:53 PM
Dec 17
33 °FMostly cloudy.7 mph75%29.87 "Hg10 mi
1:53 PM34 °FMostly cloudy.No wind64%29.86 "Hg10 mi
12:53 PM32 °FPartly sunny.5 mph69%29.90 "Hg10 mi
11:53 AM32 °FPartly sunny.3 mph64%29.89 "Hg10 mi
10:53 AM31 °FPassing clouds.5 mph67%29.96 "Hg10 mi
9:53 AM25 °FPassing clouds.No wind81%30.01 "Hg10 mi
8:53 AM22 °FScattered clouds.No wind85%30.03 "Hg10 mi
7:53 AM18 °FOvercast.6 mph88%30.01 "Hg10 mi
6:53 AM19 °FPassing clouds.3 mph88%30.02 "Hg10 mi
5:53 AM23 °FOvercast.3 mph85%29.97 "Hg10 mi
4:53 AM23 °FOvercast.5 mph85%29.99 "Hg10 mi
3:53 AM22 °FOvercast.No wind85%29.99 "Hg10 mi
2:53 AM20 °FMostly cloudy.5 mph85%30.01 "Hg10 mi
1:53 AM20 °FOvercast.5 mph85%30.03 "Hg10 mi
12:53 AM17 °FPassing clouds.No wind88%30.06 "Hg10 mi
11:53 PM
Dec 16
23 °FOvercast.No wind88%30.05 "Hg10 mi
10:53 PM18 °FClear.No wind84%30.09 "Hg10 mi
9:53 PM19 °FClear.No wind92%30.09 "Hg10 mi
8:53 PM20 °FClear.5 mph92%30.09 "Hg10 mi
7:53 PM25 °FPassing clouds.6 mph85%30.09 "Hg10 mi
6:53 PM25 °FOvercast.8 mph85%30.10 "Hg10 mi
5:53 PM28 °FOvercast.5 mph81%30.09 "Hg10 mi
4:53 PM27 °FOvercast.No wind81%30.11 "Hg10 mi
Weather by CustomWeather, © 2014

See weather overviewHow to use our weather pages